This is the latest recevied weather packets stored in our database for station/object OE6PWE-13. If no packets are shown the sender has not sent any weather packets the latest 10 day(s).
| Time | Temp. | Humidity | Pressure | Rain* | Wind** | Luminosity | Snow |
|---|---|---|---|---|---|---|---|
| 1788530411 | 32.22° C | 42% | 1014 hPa | 0 mm | - | - | - |
| 1788529511 | 32.78° C | 42% | 1014 hPa | 0 mm | - | - | - |
| 1788528611 | 31.67° C | 45% | 1015 hPa | 0 mm | - | - | - |
| 1788527711 | 31.67° C | 44% | 1015 hPa | 0 mm | - | - | - |
| 1788526812 | 31.11° C | 45% | 1015 hPa | 0 mm | - | - | - |
| 1788525912 | 31.11° C | 45% | 1016 hPa | 0 mm | - | - | - |
| 1788525012 | 30.56° C | 45% | 1016 hPa | 0 mm | - | - | - |
| 1788524112 | 31.11° C | 46% | 1016 hPa | 0 mm | - | - | - |
| 1788523212 | 30° C | 45% | 1016 hPa | 0 mm | - | - | - |
| 1788522311 | 30° C | 48% | 1017 hPa | 0 mm | - | - | - |
| 1788521411 | 30° C | 46% | 1017 hPa | 0 mm | - | - | - |
| 1788520512 | 30° C | 47% | 1017 hPa | 0 mm | - | - | - |
| 1788519612 | 30° C | 50% | 1017 hPa | 0 mm | - | - | - |
| 1788518712 | 28.89° C | 53% | 1018 hPa | 0 mm | - | - | - |
| 1788517834 | 27.78° C | 54% | 1018 hPa | 0 mm | - | - | - |
| 1788516911 | 27.78° C | 56% | 1018 hPa | 0 mm | - | - | - |
| 1788516013 | 27.22° C | 56% | 1018 hPa | 0 mm | - | - | - |
| 1788515112 | 26.67° C | 60% | 1019 hPa | 0 mm | - | - | - |
| 1788514212 | 26.11° C | 62% | 1019 hPa | 0 mm | - | - | - |
| 1788513312 | 26.11° C | 61% | 1019 hPa | 0 mm | - | - | - |
| 1788512412 | 25° C | 62% | 1019 hPa | 0 mm | - | - | - |
| 1788511512 | 25° C | 62% | 1019 hPa | 0 mm | - | - | - |
| 1788510611 | 24.44° C | 64% | 1019 hPa | 0 mm | - | - | - |
| 1788509712 | 23.33° C | 70% | 1020 hPa | 0 mm | - | - | - |
| 1788508812 | 22.22° C | 71% | 1020 hPa | 0 mm | - | - | - |
* Rain latest hour (hover to see other rain measurements)
** Current wind speed in m/s (hover to see current wind gust speed)